Regional Weather Roundup
Issued by NWS

Home | Current Version | Previous Version | Text Only | Print | Product List | Glossary On
Versions: 1 2 3 4 5 6 7 8 9 10 11 12 13 14 15 16 17 18 19 20 21 22 23 24 25 26 27 28 29 30 31 32 33 34 35 36 37 38 39 40 41 42 43 44 45 46 47 48 49 50
000
ASUS43 KMKX 220511
RWRWI

WISCONSIN REGIONAL WEATHER ROUNDUP
NATIONAL WEATHER SERVICE MILWAUKEE/SULLIVAN WI
1200 AM CDT FRI AUG 22 2014

NOTE: "FAIR" INDICATES FEW OR NO CLOUDS BELOW 12,000 FEET WITH NO
SIGNIFICANT WEATHER AND/OR OBSTRUCTIONS TO VISIBILITY.

WIZ001-002-006>008-014>016-023>028-220600-
NORTHWEST WISCONSIN

CITY           SKY/WX    TMP DP  RH WIND       PRES   REMARKS
SUPERIOR ARPT  CLOUDY    61  60  99 NE12      29.91S FOG
ASHLAND        CLOUDY    65  63  93 N5        29.91S
HAYWARD        CLOUDY    69  67  93 CALM      29.89S
SIREN          CLOUDY    71  70  96 CALM      29.88R
RICE LAKE      MOCLDY    70  68  93 E5        29.88F
LADYSMITH      CLOUDY    69  68  96 SE6       29.91S FOG
EAU CLAIRE     MOCLDY    74  72  93 E5        29.86S
MENOMONIE      PTCLDY    73  71  95 E5        29.86S
NEW RICHMOND   CLEAR     71  71  99 CALM      29.85R
OSCEOLA        MOCLDY    71  71 100 CALM      29.88R
$$

WIZ003>005-009-010-017-018-220600-
NORTH CENTRAL WISCONSIN

CITY           SKY/WX    TMP DP  RH WIND       PRES   REMARKS
WOODRUFF       CLOUDY    65  62  90 SE6       29.95F
RHINELANDER    CLOUDY    63  62  97 SE7       29.97S
EAGLE RIVER    CLOUDY    64  63  96 SE3       29.96S
LAND O LAKES   CLOUDY    65  62  92 CALM      29.97S
PHILLIPS       CLOUDY    65  65  99 E6        29.92S FOG
TOMAHAWK       CLOUDY    64  63  95 E3        29.95S FOG
MEDFORD        FOG       65  65 100 SE5       29.93S VSB 1/2
MERRILL        CLOUDY    65  65 100 SE6       29.95R FOG
$$

WIZ029-030-035-036-043>047-220600-
CENTRAL WISCONSIN

CITY           SKY/WX    TMP DP  RH WIND       PRES   REMARKS
WAUSAU         CLOUDY    65  65 100 E6        29.93F FOG
MOSINEE        CLOUDY    64  64 100 SE6       29.95F FOG
MARSHFIELD     CLOUDY    72  70  93 E5        29.92S FOG
STEVENS POINT  CLOUDY    66  65  96 E5        29.95S FOG
WAUPACA        CLOUDY    71  69  93 CALM      29.95R FOG
WAUTOMA        CLOUDY    70  69  96 CALM      29.93S FOG
WISC RAPIDS    CLOUDY    72  70  93 E5        29.94R
CAMP DOUGLAS   PTCLDY    68  68 100 CALM      29.92R FOG
$$

WIZ011>013-019>022-031-037>040-048>050-220600-
NORTHEAST WISCONSIN

CITY           SKY/WX    TMP DP  RH WIND       PRES   REMARKS
ANTIGO         CLOUDY    63  62  99 SE7       29.97S FOG
STURGEON BAY   CLOUDY    64  63  94 SE5       29.97S
GREEN BAY      CLOUDY    66  65  96 E3        29.95R
MANITOWOC      CLOUDY    66  65  96 S6        29.96S FOG
APPLETON       CLOUDY    68  66  94 E5        29.95S FOG
CLINTONVILLE   CLOUDY    66  64  94 SE3       29.94S FOG
OSHKOSH        CLOUDY    70  69  97 SE6       29.94R FOG
$$

WIZ032>034-041-042-053>061-220600-
SOUTHWEST WISCONSIN

CITY           SKY/WX    TMP DP  RH WIND       PRES   REMARKS
LA CROSSE      PTCLDY    76  71  85 S8        29.88R
SPARTA         PTCLDY    69  68  95 CALM      29.91R
VIROQUA        FAIR      71  71 100 SE3       29.93R
BOSCOBEL       MOCLDY    73  70  90 CALM      29.92R FOG
PRAIRIE DU CHI MOCLDY    73  70  91 CALM      29.91R
PLATTEVILLE    FAIR      73  72  96 E6        29.94R
$$

WIZ056-057-062-063-064-067-068-220600-
SOUTH CENTRAL WISCONSIN

CITY           SKY/WX    TMP DP  RH WIND       PRES   REMARKS
BARABOO/DELLS  PTCLDY    70  68  93 CALM      29.93R FOG
LONE ROCK      PTCLDY    75  70  84 E5        29.92R HAZE
WATERTOWN      CLEAR     70  70 100 SE3       29.95R FOG
MADISON        MOCLDY    75  72  90 S3        29.93S
MIDDLETON      MOCLDY    73  73  99 CALM      29.95R
MONROE         MOCLDY    72  72 100 E3        29.94F FOG
JANESVILLE     MOCLDY    73  72  94 E3        29.93S FOG
$$

WIZ051-052-058>065-066-070>072-220600-
SOUTHEAST WISCONSIN

CITY           SKY/WX    TMP DP  RH WIND       PRES   REMARKS
MILWAUKEE      FOG       70  68  93 SE6       29.97R VSB 1/2
WAUKESHA       CLOUDY    68  68 100 CALM      29.97S FOG
MILWAUKEE/TIMM CLOUDY    70  66  88 SE3       29.97R FOG
RACINE         FOG       71  69  93 SE5       29.97S VSB 3/4
BURLINGTON     CLOUDY    69  69  99 CALM      29.96R FOG
KENOSHA        CLOUDY    71  71 100 E3        29.96S FOG
FOND DU LAC    CLOUDY    70  68  93 SE6       29.95R FOG
SHEBOYGAN      FOG       67  66  97 CALM      29.96S VSB 1/4
WEST BEND      CLOUDY    68  64  88 CALM      29.97R FOG
JUNEAU         CLEAR     70  45  41 SE8       29.96S HAZE
$$

LSZ147-162-220600-
LAKE SUPERIOR

STATION/POSITION TIME  TEMP    WIND        PRES    WAVE
                       AIR SEA DIR/SP/G            HT/PER
                 (UTC) (F)     (DEG/KT/KT) (MB)    (FT/S)
W MID LAKE BUOY  0450   58 58   50/ 14/ 17 1013.1F   2/ 3
DEVILS ISLAND    0500   60      80/ 13/ 15 1013.1R
PORT WING        0400   61      50/ 14/ 16 1012.9S
SAXON HARBOR     0400   66        CALM     1012.5S
$$

LMZ867-665-643>646-220600-
LAKE MICHIGAN

STATION/POSITION TIME  TEMP    WIND        PRES    WAVE
                       AIR SEA DIR/SP/G            HT/PER
                 (UTC) (F)     (DEG/KT/KT) (MB)    (FT/S)
N MID LAKE BUOY  0450   66 65  110/  6/  8 1014.2F   0
NORTHPORT PIER   0400   66     120/  4/  5 1014.6F
SISTER BAY       0441   66     130/  6/  8   N/A
ALGOMA LAKESHORE 0438          120/  5/  6   N/A
KEWAUNEE LAKESHO 0400   65     120/  2/  4 1013.4F
SHEBOYGAN LAKESH 0500   66 63  150/  3/  4 1014.7R
ATWATER BUOY     0500   69     150/  8/ 10 1015.5R
MILWAUKEE LAKESH 0400   69     100/  5/  6   N/A
S MID LAKE BUOY  0450   69 68  110/  4/  4 1014.6R   0
KENOSHA   LAKESH 0500   71     110/  4/  4 1013.9F
$$

TC  - TEMPERATURE IN CELSIUS
VSB - VISIBILITY IN STATUTE MILES
WCI - WIND CHILL INDEX
HX  - HEAT INDEX




USA.gov is the U.S. government's official web portal to all federal, state and local government web resources and services.